Weather History for New York, NY

Change the Weather History Date:

Friday, December 9, 2011

  Actual Average Record
Temperature  
Mean Temperature 45 °F 40 °F  
Max Temperature 53 °F 46 °F 66 °F (1966)
Min Temperature 36 °F 34 °F 13 °F (1968)
Degree Days  
Heating Degree Days 20 25  
Month to date heating degree days 159 210  
Since 1 July heating degree days 781 985  
Cooling Degree Days 0 0  
Month to date cooling degree days 0 0  
Year to date cooling degree days 1375 1214  
Moisture  
Dew Point 31 °F    
Average Humidity 54    
Maximum Humidity 66    
Minimum Humidity 41    
Precipitation  
Precipitation T in 0.13 in 2.68 in (2014)
Month to date precipitation 1.84 1.12  
Year to date precipitation 63.26 42.29  
Snow  
Snow 0.00 in 0.10 in 3.80 in (2005)
Month to date snowfall 0.0 0.9  
Since 1 July snowfall 1.7 1.2  
Snow Depth 0.00 in    
Sea Level Pressure  
Sea Level Pressure 30.28 in    
Wind  
Wind Speed 9 mph (SW)    
Max Wind Speed 15 mph    
Max Gust Speed 20 mph    
Visibility 10 miles    
Events      
T = Trace of Precipitation, MM = Missing Value Source: NWS Daily Summary

Daily Weather History Graph

Daily Weather History Graph

Search for Another Location

Airport:

Trip Planner

Search our weather history database for the weather conditions in past years. The results will help you decide how hot, cold, wet, or windy it might be!

Date:

Astronomy

Dec. 09, 2011 Rise Set
Actual Time 7:07 AM EST 4:27 PM EST
Civil Twilight 6:36 AM EST 4:58 PM EST
Nautical Twilight 6:02 AM EST 5:32 PM EST
Astronomical Twilight 5:29 AM EST 6:06 PM EST
Moon 3:49 PM EST (12/9) 6:12 AM EST (12/9)
Length of Visible Light 10h 21m
Length of Day
9h 20m
Waxing Gibbous, 99% of the Moon is Illuminated
Dec 9
Waxing Gibbous
Dec 10
Full
Dec 17
Last Quarter
Dec 24
New
Jan 1
First Quarter

Hourly Weather History & Observations

Time (EST) Temp. Windchill Dew Point Humidity Pressure Visibility Wind Dir Wind Speed Gust Speed Precip Events Conditions
12:51 AM 39.0 °F 36.8 °F 23.0 °F 53% 30.32 in 10.0 mi SW 3.5 mph - N/A   Mostly Cloudy
1:51 AM 36.0 °F 32.1 °F 24.1 °F 62% 30.32 in 10.0 mi South 4.6 mph - N/A   Partly Cloudy
2:51 AM 37.9 °F 33.5 °F 24.1 °F 57% 30.33 in 10.0 mi SSW 5.8 mph - N/A   Partly Cloudy
3:51 AM 37.0 °F 32.4 °F 25.0 °F 62% 30.32 in 10.0 mi SW 5.8 mph - N/A   Mostly Cloudy
4:51 AM 37.0 °F 34.5 °F 24.1 °F 59% 30.32 in 10.0 mi SW 3.5 mph - N/A   Scattered Clouds
5:51 AM 36.0 °F 32.1 °F 25.0 °F 64% 30.32 in 10.0 mi SSW 4.6 mph - N/A   Partly Cloudy
6:51 AM 37.0 °F 31.6 °F 26.1 °F 65% 30.35 in 10.0 mi SSW 6.9 mph - N/A   Partly Cloudy
7:51 AM 37.9 °F 32.1 °F 25.0 °F 60% 30.36 in 10.0 mi SW 8.1 mph - N/A   Scattered Clouds
8:51 AM 39.0 °F 32.8 °F 26.1 °F 60% 30.36 in 10.0 mi SW 9.2 mph - N/A   Mostly Cloudy
9:51 AM 41.0 °F 35.2 °F 24.1 °F 51% 30.35 in 10.0 mi SW 9.2 mph - N/A   Mostly Cloudy
10:51 AM 44.1 °F 39.5 °F 23.0 °F 43% 30.34 in 10.0 mi SW 8.1 mph - N/A   Mostly Cloudy
11:51 AM 46.9 °F - 28.9 °F 50% 30.30 in 10.0 mi South 12.7 mph 18.4 mph N/A   Mostly Cloudy
12:51 PM 48.0 °F - 33.1 °F 56% 30.28 in 10.0 mi SSW 15.0 mph 19.6 mph N/A   Mostly Cloudy
1:51 PM 50.0 °F - 35.1 °F 57% 30.26 in 10.0 mi South 11.5 mph - N/A   Scattered Clouds
2:51 PM 50.0 °F - 36.0 °F 59% 30.22 in 10.0 mi South 11.5 mph 18.4 mph N/A   Scattered Clouds
3:51 PM 51.1 °F - 39.0 °F 63% 30.22 in 10.0 mi South 11.5 mph - N/A   Mostly Cloudy
4:51 PM 51.1 °F - 36.0 °F 56% 30.21 in 10.0 mi SSW 8.1 mph - N/A   Mostly Cloudy
5:51 PM 51.1 °F - 39.9 °F 66% 30.22 in 10.0 mi SSW 11.5 mph - N/A   Overcast
6:51 PM 51.1 °F - 39.0 °F 63% 30.22 in 10.0 mi SW 8.1 mph - N/A   Overcast
7:51 PM 51.1 °F - 39.0 °F 63% 30.22 in 10.0 mi SW 10.4 mph - N/A   Overcast
8:40 PM 50.0 °F - 39.2 °F 66% 30.22 in 10.0 mi SW 9.2 mph 17.3 mph N/A   Overcast
8:51 PM 50.0 °F - 39.0 °F 66% 30.23 in 10.0 mi SW 9.2 mph - N/A   Overcast
9:51 PM 50.0 °F - 39.0 °F 66% 30.22 in 10.0 mi West 9.2 mph - 0.00 in   Overcast
10:28 PM 48.2 °F - 37.4 °F 66% 30.22 in 10.0 mi WSW 8.1 mph - N/A   Overcast
10:51 PM 48.9 °F - 35.1 °F 59% 30.22 in 10.0 mi West 11.5 mph - N/A   Overcast
11:51 PM 48.0 °F - 33.1 °F 56% 30.21 in 10.0 mi West 8.1 mph - N/A   Mostly Cloudy